Orangeburg, SC

2:24 AM EST on December 18, 2017 (GMT -0500)
Orangeburg Municipal

Weather History for KOGB - April, 2014

Change the Weather History Date:

Saturday, April 12, 2014

  Actual Average Record
Temperature  
Mean Temperature 67 °F 63 °F  
Max Temperature 81 °F 76 °F 89 °F (1993)
Min Temperature 52 °F 50 °F 33 °F (1989)
Degree Days  
Heating Degree Days 0 4  
Month to date heating degree days 22 60  
Since 1 July heating degree days 2272 2269  
Cooling Degree Days 2 2  
Month to date cooling degree days 21 19  
Year to date cooling degree days 29 39  
Growing Degree Days 17 (Base 50)    
Moisture  
Dew Point 50 °F    
Average Humidity 57    
Maximum Humidity 89    
Minimum Humidity 30    
Precipitation  
Precipitation 0.00 in 0.11 in 2.30 in (1961)
Month to date precipitation 0.90 1.30  
Year to date precipitation 9.69 12.85  
Sea Level Pressure  
Sea Level Pressure 30.18 in    
Wind  
Wind Speed 4 mph (South)    
Max Wind Speed 14 mph    
Max Gust Speed 19 mph    
Visibility 10 miles    
Events      
T = Trace of Precipitation, MM = Missing Value Source: NWS Daily Summary

Daily Weather History Graph

Daily Weather History Graph

Search for Another Location

Airport or City:

Trip Planner

Search our weather history database for the weather conditions in past years. The results will help you decide how hot, cold, wet, or windy it might be!

Date:

Astronomy

Apr. 12, 2014 Rise Set
Actual Time 6:56 AM EDT 7:52 PM EDT
Civil Twilight 6:31 AM EDT 8:17 PM EDT
Nautical Twilight 6:01 AM EDT 8:47 PM EDT
Astronomical Twilight 5:30 AM EDT 9:18 PM EDT
Moon 5:35 PM EDT (4/12) 5:15 AM EDT (4/12)
Length of Visible Light 13h 46m
Length of Day
12h 55m
Waxing Gibbous, 93% of the Moon is Illuminated
Apr 12
Waxing Gibbous
Apr 15
Full
Apr 22
Last Quarter
Apr 29
New
May 6
First Quarter

Hourly Weather History & Observations

Time (EDT) Temp. Dew Point Humidity Pressure Visibility Wind Dir Wind Speed Gust Speed Precip Events Conditions
12:53 AM 60.1 °F 50.0 °F 69% 30.19 in 10.0 mi SSW 4.6 mph - N/A   Clear
1:53 AM 59.0 °F 50.0 °F 72% 30.19 in 10.0 mi Calm Calm - N/A   Clear
2:53 AM 57.0 °F 50.0 °F 77% 30.18 in 10.0 mi SSW 6.9 mph - N/A   Clear
3:53 AM 57.0 °F 50.0 °F 77% 30.17 in 10.0 mi SSW 4.6 mph - N/A   Clear
4:53 AM 54.0 °F 50.0 °F 86% 30.17 in 10.0 mi Calm Calm - N/A   Clear
5:53 AM 53.1 °F 50.0 °F 89% 30.17 in 10.0 mi Calm Calm - N/A   Clear
6:53 AM 53.1 °F 48.9 °F 86% 30.19 in 10.0 mi Calm Calm - N/A   Clear
7:53 AM 55.9 °F 52.0 °F 87% 30.22 in 10.0 mi Calm Calm - N/A   Clear
8:53 AM 61.0 °F 53.1 °F 75% 30.23 in 10.0 mi SW 3.5 mph - N/A   Clear
9:53 AM 69.1 °F 55.0 °F 61% 30.23 in 10.0 mi WSW 4.6 mph - N/A   Clear
10:53 AM 73.0 °F 53.1 °F 49% 30.24 in 10.0 mi SW 5.8 mph - N/A   Clear
11:53 AM 75.9 °F 51.1 °F 42% 30.23 in 10.0 mi South 6.9 mph - N/A   Partly Cloudy
12:53 PM 77.0 °F 48.0 °F 36% 30.21 in 10.0 mi SSE 5.8 mph - N/A   Partly Cloudy
1:53 PM 79.0 °F 46.0 °F 31% 30.19 in 10.0 mi Variable 3.5 mph - N/A   Clear
2:53 PM 80.1 °F 48.0 °F 32% 30.17 in 10.0 mi Calm Calm - N/A   Mostly Cloudy
3:53 PM 79.0 °F 48.9 °F 35% 30.15 in 10.0 mi SSW 4.6 mph - N/A   Scattered Clouds
4:53 PM 81.0 °F 48.0 °F 31% 30.13 in 10.0 mi Variable 3.5 mph - N/A   Scattered Clouds
5:53 PM 80.1 °F 46.9 °F 31% 30.12 in 10.0 mi SSE 10.4 mph - N/A   Mostly Cloudy
6:53 PM 78.1 °F 48.0 °F 35% 30.12 in 10.0 mi South 5.8 mph - N/A   Clear
7:53 PM 75.0 °F 50.0 °F 41% 30.12 in 10.0 mi SSE 3.5 mph - N/A   Clear
8:53 PM 72.0 °F 52.0 °F 49% 30.15 in 10.0 mi South 8.1 mph - N/A   Clear
9:53 PM 70.0 °F 50.0 °F 49% 30.17 in 10.0 mi South 8.1 mph - N/A   Clear
10:53 PM 66.0 °F 50.0 °F 56% 30.18 in 10.0 mi SSE 4.6 mph - N/A   Clear
11:53 PM 64.0 °F 51.1 °F 63% 30.19 in 10.0 mi SSE 3.5 mph - N/A   Clear